• In Spain
  • List of Countries
  • For 7 days
  • Water Temperature
  • Satellite Maps
  • Weather Map
  • Weather Widgets
  • user-avatar
    Login

    Hourly Weather Sintra

    Today, 22 November, Wednesday

    Time Temperature Precipitation Wind Pressure Humidity
    00:00 +12°C° 0 mm 5 mps 749 mmHg 85%
    01:00 +12°C° 0 mm 5 mps 749 mmHg 84%
    02:00 +10°C° 0 mm 6 mps 749 mmHg 82%
    03:00 +10°C° 0 mm 6 mps 748 mmHg 81%
    04:00 +10°C° 0 mm 6 mps 748 mmHg 79%
    05:00 +10°C° 0 mm 6 mps 748 mmHg 77%
    06:00 +11°C° 0 mm 6 mps 748 mmHg 74%
    07:00 +12°C° 0 mm 7 mps 748 mmHg 70%
    08:00 +14°C° 0 mm 7 mps 748 mmHg 66%
    09:00 +16°C° 0 mm 8 mps 748 mmHg 62%
    10:00 +18°C° 0 mm 8 mps 747 mmHg 57%
    11:00 +21°C° 0 mm 8 mps 747 mmHg 53%
    12:00 +21°C° 0 mm 8 mps 747 mmHg 53%
    13:00 +21°C° 0 mm 9 mps 746 mmHg 54%
    14:00 +21°C° 0 mm 9 mps 746 mmHg 55%
    15:00 +20°C° 0.1 mm 8 mps 746 mmHg 58%
    16:00 +18°C° 0.1 mm 7 mps 746 mmHg 62%
    17:00 +19°C° 0.1 mm 6 mps 746 mmHg 65%
    18:00 +18°C° 0 mm 7 mps 746 mmHg 68%
    19:00 +17°C° 0 mm 7 mps 746 mmHg 71%
    20:00 +17°C° 0 mm 7 mps 747 mmHg 74%
    21:00 +17°C° 0 mm 7 mps 747 mmHg 74%
    22:00 +17°C° 0 mm 7 mps 747 mmHg 74%
    23:00 +17°C° 0 mm 7 mps 746 mmHg 75%

    Tomorrow, 23 November, Thursday

    Time Temperature Precipitation Wind Pressure Humidity
    00:00 +17°C° 0 mm 7 mps 747 mmHg 75%
    01:00 +17°C° 0 mm 6 mps 747 mmHg 76%
    02:00 +17°C° 0 mm 6 mps 747 mmHg 76%
    03:00 +17°C° 0 mm 6 mps 747 mmHg 76%
    04:00 +17°C° 0 mm 7 mps 746 mmHg 76%
    05:00 +17°C° 0 mm 7 mps 746 mmHg 76%
    06:00 +17°C° 0 mm 7 mps 747 mmHg 71%
    07:00 +17°C° 0 mm 7 mps 747 mmHg 67%
    08:00 +17°C° 0 mm 8 mps 747 mmHg 63%
    09:00 +18°C° 0.2 mm 8 mps 747 mmHg 56%
    10:00 +19°C° 0.2 mm 9 mps 747 mmHg 50%
    11:00 +21°C° 0.2 mm 9 mps 747 mmHg 43%
    12:00 +21°C° 0.9 mm 10 mps 747 mmHg 48%
    13:00 +21°C° 0.9 mm 11 mps 747 mmHg 52%
    14:00 +19°C° 0.9 mm 12 mps 746 mmHg 57%
    15:00 +19°C° 0.4 mm 11 mps 747 mmHg 64%
    16:00 +19°C° 0.4 mm 10 mps 747 mmHg 72%
    17:00 +18°C° 0.4 mm 9 mps 747 mmHg 80%
    18:00 +18°C° 0.1 mm 8 mps 748 mmHg 80%
    19:00 +17°C° 0.1 mm 7 mps 748 mmHg 81%
    20:00 +17°C° 0.1 mm 6 mps 749 mmHg 82%
    21:00 +16°C° 0 mm 5 mps 749 mmHg 83%
    22:00 +16°C° 0 mm 5 mps 749 mmHg 84%
    23:00 +16°C° 0 mm 5 mps 749 mmHg 86%

    Day after tomorrow, 24 November, Friday

    Time Temperature Precipitation Wind Pressure Humidity
    00:00 +16°C° 0.5 mm 5 mps 749 mmHg 86%
    01:00 +16°C° 0.5 mm 5 mps 749 mmHg 87%
    02:00 +16°C° 0.5 mm 5 mps 749 mmHg 88%
    03:00 +16°C° 0.4 mm 5 mps 748 mmHg 89%
    04:00 +15°C° 0.4 mm 5 mps 748 mmHg 90%
    05:00 +15°C° 0.4 mm 6 mps 748 mmHg 90%
    06:00 +15°C° 0.2 mm 6 mps 749 mmHg 87%
    07:00 +16°C° 0.2 mm 6 mps 749 mmHg 84%
    08:00 +16°C° 0.2 mm 6 mps 749 mmHg 81%
    09:00 +18°C° 0.1 mm 7 mps 749 mmHg 75%
    10:00 +20°C° 0.1 mm 7 mps 749 mmHg 69%
    11:00 +21°C° 0.1 mm 8 mps 749 mmHg 63%
    12:00 +21°C° 0.2 mm 7 mps 749 mmHg 63%
    13:00 +21°C° 0.2 mm 7 mps 749 mmHg 63%
    14:00 +21°C° 0.2 mm 6 mps 749 mmHg 63%
    15:00 +20°C° 0.1 mm 5 mps 749 mmHg 71%
    16:00 +19°C° 0.1 mm 5 mps 749 mmHg 78%
    17:00 +18°C° 0.1 mm 4 mps 749 mmHg 85%
    18:00 +17°C° 0.2 mm 3 mps 749 mmHg 87%
    19:00 +17°C° 0.2 mm 3 mps 750 mmHg 89%
    20:00 +17°C° 0.2 mm 2 mps 750 mmHg 91%
    21:00 +16°C° 0.1 mm 2 mps 751 mmHg 91%
    22:00 +16°C° 0.1 mm 2 mps 751 mmHg 91%
    23:00 +16°C° 0.1 mm 2 mps 751 mmHg 91%

    25 November, Saturday

    Time Temperature Precipitation Wind Pressure Humidity
    00:00 +16°C° 0 mm 3 mps 751 mmHg 91%
    01:00 +15°C° 0 mm 4 mps 751 mmHg 91%
    02:00 +15°C° 0 mm 5 mps 751 mmHg 91%
    03:00 +15°C° 0.1 mm 5 mps 751 mmHg 91%
    04:00 +14°C° 0.1 mm 5 mps 751 mmHg 91%
    05:00 +14°C° 0.1 mm 4 mps 751 mmHg 91%
    06:00 +14°C° 0.2 mm 4 mps 752 mmHg 90%
    07:00 +14°C° 0.2 mm 4 mps 752 mmHg 89%
    08:00 +14°C° 0.2 mm 4 mps 752 mmHg 87%
    09:00 +15°C° 0.4 mm 4 mps 752 mmHg 84%
    10:00 +17°C° 0.4 mm 3 mps 752 mmHg 81%
    11:00 +18°C° 0.4 mm 3 mps 752 mmHg 78%
    12:00 +17°C° 0.4 mm 3 mps 752 mmHg 79%
    13:00 +17°C° 0.4 mm 3 mps 752 mmHg 81%
    14:00 +17°C° 0.4 mm 3 mps 752 mmHg 83%
    15:00 +17°C° 0.5 mm 2 mps 752 mmHg 85%
    16:00 +16°C° 0.5 mm 2 mps 752 mmHg 87%
    17:00 +15°C° 0.5 mm 1 mps 752 mmHg 90%
    18:00 +15°C° 0.3 mm 1 mps 752 mmHg 89%
    19:00 +15°C° 0.3 mm 2 mps 753 mmHg 89%
    20:00 +15°C° 0.3 mm 2 mps 753 mmHg 89%
    21:00 +15°C° 0.1 mm 2 mps 753 mmHg 89%
    22:00 +15°C° 0.1 mm 2 mps 753 mmHg 88%
    23:00 +15°C° 0.1 mm 2 mps 752 mmHg 87%

    26 November, Sunday

    Time Temperature Precipitation Wind Pressure Humidity
    00:00 +15°C° 0.2 mm 2 mps 752 mmHg 88%
    01:00 +14°C° 0.2 mm 2 mps 752 mmHg 88%
    02:00 +14°C° 0.2 mm 2 mps 752 mmHg 89%
    03:00 +14°C° 0.4 mm 2 mps 752 mmHg 89%
    04:00 +14°C° 0.4 mm 2 mps 752 mmHg 90%
    05:00 +14°C° 0.4 mm 1 mps 753 mmHg 91%
    06:00 +14°C° 0.3 mm 2 mps 753 mmHg 90%
    07:00 +14°C° 0.3 mm 2 mps 753 mmHg 90%
    08:00 +15°C° 0.3 mm 2 mps 754 mmHg 90%
    09:00 +15°C° 0.3 mm 2 mps 754 mmHg 89%
    10:00 +15°C° 0.3 mm 2 mps 754 mmHg 88%
    11:00 +16°C° 0.3 mm 2 mps 754 mmHg 87%
    12:00 +16°C° 0.1 mm 3 mps 754 mmHg 85%
    13:00 +17°C° 0.1 mm 3 mps 754 mmHg 82%
    14:00 +17°C° 0.1 mm 3 mps 754 mmHg 80%
    15:00 +16°C° 0 mm 3 mps 754 mmHg 84%
    16:00 +16°C° 0 mm 3 mps 754 mmHg 87%
    17:00 +14°C° 0 mm 4 mps 754 mmHg 91%
    18:00 +13°C° 0 mm 4 mps 754 mmHg 91%
    19:00 +13°C° 0 mm 4 mps 754 mmHg 92%
    20:00 +13°C° 0 mm 4 mps 755 mmHg 92%
    21:00 +12°C° 0 mm 5 mps 754 mmHg 92%
    22:00 +12°C° 0 mm 5 mps 754 mmHg 91%
    23:00 +12°C° 0 mm 5 mps 754 mmHg 90%

    27 November, Monday

    Time Temperature Precipitation Wind Pressure Humidity
    00:00 +12°C° 0 mm 5 mps 754 mmHg 89%
    01:00 +12°C° 0 mm 5 mps 754 mmHg 88%
    02:00 +12°C° 0 mm 5 mps 753 mmHg 87%
    03:00 +12°C° 0 mm 5 mps 753 mmHg 86%
    04:00 +12°C° 0 mm 5 mps 753 mmHg 85%
    05:00 +11°C° 0 mm 6 mps 753 mmHg 84%
    06:00 +13°C° 0 mm 6 mps 753 mmHg 83%
    07:00 +13°C° 0 mm 6 mps 753 mmHg 81%
    08:00 +13°C° 0 mm 6 mps 753 mmHg 80%
    09:00 +14°C° 0 mm 6 mps 753 mmHg 75%
    10:00 +15°C° 0 mm 6 mps 753 mmHg 70%
    11:00 +17°C° 0 mm 6 mps 753 mmHg 65%
    12:00 +17°C° 0 mm 5 mps 752 mmHg 63%
    13:00 +17°C° 0 mm 5 mps 751 mmHg 62%
    14:00 +17°C° 0 mm 5 mps 751 mmHg 60%
    15:00 +18°C° 0.2 mm 4 mps 750 mmHg 63%
    16:00 +17°C° 0.2 mm 4 mps 750 mmHg 66%
    17:00 +17°C° 0.2 mm 4 mps 750 mmHg 70%
    18:00 +15°C° 1 mm 4 mps 750 mmHg 74%
    19:00 +15°C° 1 mm 5 mps 749 mmHg 79%
    20:00 +15°C° 1 mm 5 mps 749 mmHg 84%
    21:00 +15°C° 1.5 mm 5 mps 749 mmHg 87%
    22:00 +15°C° 1.5 mm 5 mps 748 mmHg 90%
    23:00 +15°C° 1.5 mm 5 mps 747 mmHg 93%
    Show more